TimeEEST,TemperatureF,Dew PointF,Humidity,Sea Level PressureIn,VisibilityMPH,Wind Direction,Wind SpeedMPH,Gust SpeedMPH,PrecipitationIn,Events,Conditions,WindDirDegrees,DateUTC
12:50 AM,68.0,55.4,64,29.89,6.2,West,4.6,-,N/A,,Partly Cloudy,260,2013-07-20 21:50:00
1:50 AM,69.8,55.4,60,29.89,6.2,West,6.9,-,N/A,,Partly Cloudy,280,2013-07-20 22:50:00
2:50 AM,69.8,55.4,60,29.86,6.2,Calm,Calm,-,N/A,,Partly Cloudy,0,2013-07-20 23:50:00
3:50 AM,69.8,55.4,60,29.86,6.2,SW,4.6,-,N/A,,Partly Cloudy,220,2013-07-21 00:50:00
4:50 AM,69.8,55.4,60,29.86,6.2,Calm,Calm,-,N/A,,Partly Cloudy,0,2013-07-21 01:50:00
5:50 AM,68.0,55.4,64,29.86,6.2,Calm,Calm,-,N/A,,Partly Cloudy,0,2013-07-21 02:50:00
6:20 AM,71.6,55.4,57,29.89,6.2,West,6.9,-,N/A,,Partly Cloudy,270,2013-07-21 03:20:00
6:50 AM,68.0,55.4,64,29.89,6.2,West,5.8,-,N/A,,Partly Cloudy,280,2013-07-21 03:50:00
7:20 AM,69.8,55.4,60,29.89,6.2,West,4.6,-,N/A,,Partly Cloudy,270,2013-07-21 04:20:00
7:50 AM,73.4,57.2,57,29.89,6.2,Calm,Calm,-,N/A,,Partly Cloudy,0,2013-07-21 04:50:00
8:20 AM,78.8,57.2,47,29.89,6.2,Calm,Calm,-,N/A,,Partly Cloudy,0,2013-07-21 05:20:00
8:50 AM,80.6,55.4,42,29.89,6.2,NW,8.1,-,N/A,,Partly Cloudy,320,2013-07-21 05:50:00
9:20 AM,82.4,55.4,39,29.89,6.2,NW,8.1,-,N/A,,Partly Cloudy,310,2013-07-21 06:20:00
9:50 AM,84.2,55.4,37,29.89,6.2,WNW,8.1,-,N/A,,Partly Cloudy,300,2013-07-21 06:50:00
10:20 AM,86.0,53.6,33,29.89,6.2,NNW,9.2,-,N/A,,Partly Cloudy,330,2013-07-21 07:20:00
10:50 AM,84.2,55.4,37,29.89,6.2,NNW,8.1,-,N/A,,Scattered Clouds,340,2013-07-21 07:50:00
11:20 AM,87.8,53.6,31,29.89,6.2,NNW,8.1,-,N/A,,Scattered Clouds,330,2013-07-21 08:20:00
11:50 AM,86.0,53.6,33,29.89,6.2,NNW,10.4,-,N/A,,Scattered Clouds,330,2013-07-21 08:50:00
12:20 PM,87.8,53.6,31,29.89,6.2,WNW,6.9,-,N/A,,Scattered Clouds,290,2013-07-21 09:20:00
12:50 PM,87.8,50.0,27,29.89,6.2,NE,5.8,-,N/A,,Scattered Clouds,50,2013-07-21 09:50:00
1:20 PM,91.4,50.0,24,29.89,6.2,NE,4.6,-,N/A,,Scattered Clouds,40,2013-07-21 10:20:00
1:50 PM,91.4,53.6,28,29.86,6.2,ENE,8.1,-,N/A,,Partly Cloudy,60,2013-07-21 10:50:00
2:20 PM,91.4,53.6,28,29.86,6.2,East,8.1,-,N/A,,Scattered Clouds,100,2013-07-21 11:20:00
2:50 PM,89.6,55.4,31,29.86,6.2,East,6.9,-,N/A,,Scattered Clouds,100,2013-07-21 11:50:00
3:20 PM,91.4,55.4,29,29.86,6.2,ESE,8.1,-,N/A,,Scattered Clouds,110,2013-07-21 12:20:00
3:50 PM,89.6,55.4,31,29.86,6.2,ESE,10.4,-,N/A,,Partly Cloudy,110,2013-07-21 12:50:00
4:20 PM,89.6,55.4,31,29.83,6.2,ESE,8.1,-,N/A,,Scattered Clouds,110,2013-07-21 13:20:00
4:50 PM,91.4,51.8,26,29.83,6.2,ESE,9.2,-,N/A,,Scattered Clouds,110,2013-07-21 13:50:00
5:20 PM,89.6,51.8,27,29.83,6.2,ESE,9.2,-,N/A,,Scattered Clouds,110,2013-07-21 14:20:00
5:50 PM,89.6,53.6,29,29.83,6.2,ESE,8.1,-,N/A,,Scattered Clouds,110,2013-07-21 14:50:00
6:20 PM,89.6,53.6,29,29.83,6.2,ESE,8.1,-,N/A,,Scattered Clouds,110,2013-07-21 15:20:00
6:50 PM,86.0,59.0,40,29.83,6.2,ESE,8.1,-,N/A,,Scattered Clouds,110,2013-07-21 15:50:00
7:20 PM,86.0,59.0,40,29.86,6.2,ESE,6.9,-,N/A,,Mostly Cloudy,110,2013-07-21 16:20:00
7:50 PM,86.0,53.6,33,29.86,6.2,SE,6.9,-,N/A,,Mostly Cloudy,130,2013-07-21 16:50:00
8:20 PM,86.0,53.6,33,29.86,6.2,ESE,4.6,-,N/A,,Scattered Clouds,110,2013-07-21 17:20:00
8:50 PM,82.4,55.4,39,29.86,6.2,East,4.6,-,N/A,,Scattered Clouds,100,2013-07-21 17:50:00
9:50 PM,82.4,53.6,37,29.89,6.2,SE,5.8,-,N/A,,Mostly Cloudy,130,2013-07-21 18:50:00
10:50 PM,78.8,55.4,44,29.89,6.2,Calm,Calm,-,N/A,,Mostly Cloudy,0,2013-07-21 19:50:00
11:50 PM,77.0,62.6,61,29.89,6.2,Calm,Calm,-,N/A,,Scattered Clouds,0,2013-07-21 20:50:00